Location: Chimay
(50.0486°N, 4.3171°E)
Time: 04:58:33
(UTC+00:00)

Cosmos 1500 - Pass Details

Date: 08 August 2020
Orbit: 500 x 518 km, 82.5° (Epoch: 19 September)

Event Time Altitude Azimuth Distance (km) Brightness Sun altitude
Exits shadow 22:25:02 66° 246° (WSW) 553 3.2 -21.6°
Maximum altitude 22:25:19 70° 281° (W) 538 3.2 -21.7°
Drops below altitude 10° 22:29:05 10° 6° (N) 1,720 6.7 -21.9°
Sets 22:31:13 0° 9° (N) 2,611 7.8 -22.0°
